Temperature
3 2 2 2 1 0 -1 -2 -2 -2 -2 -2 -3 -3 -3 -4 -4 -5 -6 -6 -7 -7 -8 -8 -8 -8 -8 -8 -8 -8 -8 -7 -7 -6 -5 -1 1 2 2 3 4 6 7
3 2 2 1 0 -1 -2 -3 -3 -3 -3 -4 -4 -5 -5 -5 -6 -6 -7 -7 -8 -8 -9 -9 -9 -9 -9 -9 -9 -9 -9 -8 -7 -7 -6 -4 -3 -0 2 2 3 4 5
3 2 2 0 -1 -2 -3 -3 -3 -4 -4 -5 -5 -5 -5 -5 -6 -7 -7 -8 -8 -9 -10 -10 -10 -10 -10 -10 -10 -10 -10 -9 -8 -7 -7 -5 -4 -5 -2 -0 1 2 3
2 2 1 -1 -2 -3 -3 -3 -4 -4 -5 -5 -6 -7 -7 -7 -8 -8 -9 -9 -9 -9 -10 -10 -11 -11 -11 -11 -10 -10 -10 -10 -9 -8 -7 -7 -6 -5 -4 -3 -1 0 1
2 1 -0 -1 -2 -3 -3 -4 -4 -5 -5 -6 -7 -7 -8 -8 -9 -9 -9 -9 -10 -10 -11 -11 -11 -11 -11 -11 -11 -11 -10 -10 -10 -9 -8 -7 -6 -6 -5 -5 -3 -1 1
1 1 -0 -1 -2 -3 -4 -4 -5 -5 -6 -7 -7 -8 -8 -9 -9 -10 -10 -10 -11 -11 -11 -12 -12 -12 -12 -12 -11 -11 -11 -10 -10 -9 -8 -8 -7 -6 -6 -6 -5 -4 -2
1 0 -1 -2 -3 -4 -4 -5 -5 -6 -7 -7 -8 -8 -9 -9 -10 -10 -11 -11 -12 -12 -12 -12 -12 -13 -12 -12 -12 -11 -11 -10 -10 -9 -9 -8 -7 -7 -6 -6 -6 -5 -4
1 -0 -2 -3 -4 -4 -5 -5 -6 -6 -7 -7 -8 -9 -9 -10 -10 -11 -12 -12 -12 -13 -13 -13 -13 -13 -13 -12 -12 -11 -11 -10 -10 -9 -9 -8 -7 -7 -7 -6 -6 -5 -4
-0 -1 -2 -3 -4 -5 -5 -6 -6 -7 -7 -8 -9 -9 -10 -11 -11 -12 -12 -12 -13 -13 -13 -13 -13 -13 -13 -13 -12 -12 -11 -10 -10 -9 -9 -8 -8 -7 -7 -6 -6 -5 -4
-1 -2 -3 -4 -4 -5 -5 -6 -6 -7 -8 -9 -9 -10 -11 -11 -12 -12 -13 -13 -13 -13 -13 -14 -14 -13 -13 -13 -12 -12 -11 -10 -9 -9 -9 -8 -8 -7 -7 -7 -6 -5 -5
-2 -3 -4 -4 -5 -5 -5 -6 -7 -8 -8 -9 -10 -11 -11 -12 -12 -13 -13 -13 -13 -13 -14 -14 -14 -14 -13 -13 -12 -12 -11 -10 -9 -9 -9 -8 -8 -7 -7 -7 -6 -5 -5
-3 -3 -4 -4 -4 -5 -5 -6 -7 -8 -9 -10 -10 -11 -12 -12 -13 -13 -13 -13 -13 -13 -13 -14 -14 -13 -13 -13 -12 -11 -11 -10 -9 -9 -8 -8 -8 -7 -7 -6 -6 -5 -5
-3 -3 -3 -4 -4 -5 -6 -7 -8 -9 -9 -10 -10 -11 -12 -13 -13 -13 -13 -13 -13 -13 -13 -13 -13 -13 -13 -12 -12 -11 -10 -10 -9 -9 -8 -8 -8 -7 -7 -6 -6 -5 -5
-3 -3 -3 -4 -4 -5 -6 -7 -8 -9 -9 -10 -11 -11 -12 -13 -13 -13 -13 -13 -13 -13 -13 -13 -13 -13 -12 -12 -11 -10 -10 -9 -9 -9 -8 -8 -8 -8 -7 -7 -6 -6 -5
-3 -3 -3 -4 -5 -6 -7 -8 -8 -9 -9 -10 -11 -12 -12 -13 -13 -13 -13 -13 -13 -13 -13 -13 -13 -12 -12 -11 -10 -10 -10 -9 -9 -9 -9 -8 -8 -8 -8 -7 -7 -6 -5
-3 -3 -4 -4 -5 -6 -7 -8 -8 -9 -9 -10 -11 -12 -12 -13 -13 -13 -13 -13 -13 -13 -13 -12 -12 -12 -11 -10 -10 -9 -10 -9 -9 -9 -9 -9 -9 -9 -8 -8 -7 -7 -7
-3 -3 -4 -5 -5 -6 -7 -8 -8 -8 -9 -10 -11 -12 -12 -13 -13 -13 -13 -13 -13 -13 -13 -12 -12 -11 -11 -10 -10 -10 -10 -10 -10 -10 -9 -9 -9 -9 -9 -8 -8 -7 -7
-3 -3 -4 -5 -6 -6 -7 -7 -8 -8 -9 -10 -11 -12 -12 -13 -13 -13 -13 -13 -13 -13 -13 -12 -12 -12 -11 -10 -11 -11 -10 -10 -10 -10 -10 -10 -10 -9 -9 -9 -9 -8 -7
-3 -4 -4 -5 -6 -6 -7 -7 -7 -8 -9 -10 -11 -11 -12 -13 -13 -13 -13 -13 -13 -13 -13 -13 -12 -12 -12 -11 -11 -11 -11 -11 -11 -11 -11 -11 -10 -10 -10 -9 -9 -9 -8
-3 -4 -4 -5 -5 -6 -6 -7 -7 -8 -9 -10 -10 -11 -12 -12 -13 -13 -13 -13 -13 -13 -13 -13 -13 -13 -12 -12 -11 -12 -12 -12 -12 -12 -11 -11 -11 -11 -11 -10 -10 -10 -9
-3 -4 -4 -5 -5 -6 -6 -7 -7 -8 -9 -9 -10 -11 -12 -12 -13 -13 -13 -13 -13 -13 -13 -13 -13 -13 -13 -12 -12 -12 -13 -12 -13 -13 -13 -13 -12 -12 -11 -11 -11 -11 -10
-4 -4 -4 -5 -5 -6 -6 -6 -7 -8 -8 -9 -9 -10 -11 -12 -12 -12 -13 -13 -13 -13 -13 -13 -13 -13 -13 -13 -13 -13 -13 -13 -13 -14 -14 -13 -13 -12 -12 -12 -12 -11 -10
-4 -4 -4 -5 -5 -6 -6 -6 -7 -7 -8 -8 -9 -10 -11 -11 -12 -12 -13 -13 -13 -13 -13 -13 -13 -13 -13 -13 -13 -13 -13 -14 -13 -13 -14 -14 -14 -13 -12 -12 -11 -11 -11
-3 -4 -4 -5 -5 -6 -6 -6 -7 -7 -8 -8 -9 -9 -10 -11 -11 -12 -12 -13 -13 -13 -13 -13 -13 -13 -13 -13 -13 -13 -13 -14 -13 -13 -13 -13 -13 -13 -13 -12 -12 -12 -12
-3 -4 -4 -4 -5 -5 -6 -6 -7 -7 -7 -8 -8 -9 -10 -10 -10 -11 -12 -12 -13 -13 -13 -13 -13 -13 -13 -13 -13 -13 -13 -14 -14 -13 -13 -14 -14 -14 -14 -13 -13 -13 -12
-3 -4 -4 -4 -5 -5 -6 -6 -7 -7 -7 -8 -8 -9 -10 -10 -10 -10 -10 -11 -12 -12 -13 -13 -13 -13 -13 -13 -13 -13 -14 -14 -14 -14 -14 -14 -14 -15 -14 -14 -14 -14 -13
Wind_Speed
5 5 4 5 7 8 9 9 9 10 12 9 10 11 11 10 14 19 21 22 24 24 21 18 17 17 10 12 13 14 14 13 13 14 16 12 11 10 6 7 9 10 12
5 4 4 6 7 6 7 7 8 7 10 9 8 8 7 7 13 16 18 20 22 22 20 19 16 15 10 11 13 14 11 12 12 12 12 8 7 6 10 7 7 8 11
5 3 4 5 4 5 6 8 7 7 10 13 11 11 6 6 7 7 9 19 22 21 20 20 18 16 10 10 12 11 13 13 12 9 7 6 6 13 7 6 6 9 11
4 2 3 2 2 4 5 7 7 7 10 13 9 10 11 10 10 8 9 18 20 20 20 21 18 16 13 11 12 12 11 12 12 11 7 9 10 7 8 7 6 9 11
4 3 1 1 3 5 6 7 8 7 9 11 9 9 9 8 9 10 10 9 15 18 20 20 18 16 13 11 12 12 12 10 12 11 11 11 10 9 9 14 14 12 8
3 2 2 4 5 6 7 7 8 8 8 9 8 10 11 11 14 14 11 11 9 12 18 20 18 17 14 12 12 11 13 11 13 11 10 10 9 9 8 12 16 16 13
2 3 6 7 7 8 8 8 9 9 9 9 10 10 10 10 12 13 12 13 12 11 10 18 16 15 15 16 14 11 12 13 13 12 11 10 10 9 10 12 14 16 15
4 5 5 6 7 8 8 9 9 9 10 11 11 9 9 10 10 12 13 13 12 11 15 18 18 17 17 18 14 11 12 12 12 14 13 11 10 9 9 10 12 14 13
5 5 5 7 7 8 8 9 9 10 11 12 12 10 9 11 12 12 11 10 12 16 19 19 16 16 16 15 12 11 13 13 12 12 13 11 9 9 9 9 10 11 14
4 5 5 6 6 7 7 8 8 9 10 11 11 13 11 12 13 12 13 13 15 18 17 15 14 13 14 13 11 12 13 14 13 11 13 11 9 9 9 9 10 10 12
3 3 4 5 6 7 7 8 9 10 11 11 10 12 12 13 14 12 13 13 14 16 14 14 15 15 14 13 13 14 15 14 14 13 13 13 11 9 9 9 10 10 11
2 2 4 5 6 8 8 9 9 10 11 11 11 12 13 12 13 14 14 16 14 16 17 15 15 16 15 14 14 15 15 15 15 14 13 12 10 11 10 9 10 10 10
1 2 4 6 7 8 9 9 10 11 11 11 12 13 13 13 14 14 14 16 15 15 16 15 16 16 16 16 15 14 15 14 13 11 11 10 10 10 9 9 9 9 9
0 3 4 6 7 8 8 9 10 11 12 12 12 13 13 14 14 14 13 14 14 14 15 16 16 17 17 16 15 13 12 10 8 8 9 9 10 10 10 8 9 9 9
1 4 5 6 7 8 8 9 10 11 12 12 13 13 13 13 13 13 13 13 13 15 15 16 17 17 16 12 11 9 7 7 8 9 9 10 13 17 14 11 10 10 8
1 4 5 7 8 8 8 10 10 11 11 11 12 13 14 14 13 13 13 14 14 15 15 16 18 18 16 19 20 15 10 10 10 10 10 11 12 17 20 21 20 17 12
1 3 4 5 6 7 8 9 10 10 10 11 12 13 13 13 13 14 14 14 13 13 14 15 17 18 21 26 24 24 14 12 12 11 11 11 13 14 11 16 19 18 21
2 1 3 5 5 6 7 8 9 9 10 10 11 12 12 12 12 12 12 12 10 11 12 13 15 16 22 27 24 23 15 12 13 13 12 11 13 15 15 13 12 12 14
4 1 1 2 5 7 8 8 8 9 9 10 11 12 11 12 12 12 12 9 9 9 11 12 14 15 19 26 24 20 10 11 13 14 16 15 13 23 24 16 14 13 13
4 2 1 3 5 7 7 7 8 9 10 11 11 11 11 11 10 11 10 8 8 10 11 12 12 14 14 24 25 20 10 11 11 11 14 21 22 25 25 15 14 15 14
5 3 2 3 5 6 6 7 8 9 10 10 10 10 11 10 9 10 8 9 10 10 10 11 11 12 16 21 26 23 10 11 11 11 11 13 24 25 26 21 15 19 15
4 3 2 3 5 6 6 7 8 8 9 9 9 9 9 9 11 9 9 9 8 8 8 8 9 9 11 16 20 24 21 17 11 11 10 13 23 24 25 20 23 25 19
4 2 1 3 5 5 5 5 7 8 8 9 9 8 9 8 8 8 8 8 8 6 7 7 8 9 9 11 19 21 21 21 12 10 18 20 23 21 18 24 26 20 14
4 3 1 2 4 6 6 5 7 7 7 8 8 8 7 8 8 7 7 7 7 6 6 7 7 8 8 7 6 6 9 14 12 10 14 19 21 18 19 19 17 14 14
4 3 1 1 4 5 6 6 7 7 7 8 8 8 8 7 7 8 7 9 6 10 8 5 5 6 6 10 15 10 7 5 9 9 8 10 11 12 12 12 13 13 13
5 3 3 2 3 4 5 6 6 6 6 7 7 6 6 7 7 7 8 13 14 17 17 15 13 10 13 15 14 13 14 14 15 9 7 8 9 10 11 11 12 12 12
Wind_Direction
121 104 76 58 42 27 14 4 353 346 351 352 353 350 347 344 345 348 347 348 348 346 344 347 343 343 339 334 333 332 328 330 328 323 320 303 282 281 307 316 319 335 343
106 95 58 45 36 16 356 354 348 341 347 346 339 336 327 323 333 334 339 345 345 343 346 344 340 339 335 331 333 329 329 328 330 325 322 318 312 337 318 306 316 341 341
109 86 49 43 19 355 345 359 344 338 341 342 341 342 327 322 333 332 337 340 339 338 340 337 336 335 332 329 327 325 329 326 323 321 316 316 320 325 299 302 323 337 330
119 102 57 33 356 337 342 347 339 333 336 340 342 345 345 337 333 331 326 329 333 334 337 334 334 333 329 325 324 330 320 320 320 318 301 300 302 303 310 312 320 321 323
137 103 77 37 6 352 348 340 334 329 332 336 334 334 331 325 326 327 324 323 327 330 332 332 333 329 326 321 319 320 319 317 313 311 310 306 301 287 294 304 314 318 311
135 93 46 24 2 352 344 337 334 330 330 332 330 329 327 327 330 332 329 330 326 327 327 330 329 326 323 320 318 318 315 312 308 308 304 304 302 303 304 301 307 308 310
111 48 28 8 353 346 339 334 334 334 335 335 335 330 328 326 326 329 330 329 329 328 321 326 324 322 320 319 317 315 313 310 308 307 302 299 295 294 296 295 299 301 305
71 49 27 3 348 342 339 338 340 340 341 343 340 331 333 333 331 329 329 327 326 322 320 323 320 317 318 320 315 312 309 308 306 303 301 296 291 293 291 290 296 299 299
67 46 17 2 349 342 341 340 344 345 346 345 340 340 338 334 331 328 326 325 323 324 324 320 317 315 315 313 311 309 307 305 302 300 298 295 292 290 288 286 282 285 292
66 36 9 353 343 339 336 341 348 345 340 340 340 343 332 329 327 325 323 322 321 321 320 319 317 315 313 310 309 308 305 305 304 301 300 298 294 291 288 283 278 274 277
80 21 351 340 337 339 342 347 347 343 340 336 332 329 326 324 323 321 319 318 318 319 319 319 317 315 312 311 309 307 306 306 306 304 302 300 297 296 293 288 281 276 274
95 6 341 339 343 345 347 349 345 340 336 332 330 328 325 323 322 321 319 319 318 320 319 318 317 315 315 311 308 306 307 304 304 305 303 303 303 302 298 293 287 282 278
92 347 345 346 346 347 348 346 341 337 334 334 333 329 326 326 325 323 322 322 322 322 322 321 319 317 315 312 306 301 300 299 301 305 308 313 314 314 314 307 302 297 292
60 353 350 347 345 345 344 341 338 336 338 337 333 331 329 328 326 325 325 327 328 328 329 328 325 322 318 311 304 299 300 307 318 330 335 340 341 339 333 330 327 319 309
9 3 356 348 344 345 342 339 335 336 337 335 335 334 331 330 329 330 332 333 336 340 337 336 333 331 330 326 322 326 347 357 359 356 351 351 4 4 3 3 357 349 340
42 7 356 348 345 342 337 335 333 334 334 333 332 332 335 336 336 337 341 342 343 341 341 341 340 342 343 358 18 31 31 21 11 3 356 357 10 15 11 11 12 10 5
93 12 348 336 333 332 329 329 328 329 332 331 331 334 336 338 338 343 346 345 342 342 343 342 346 349 355 13 30 38 31 22 16 8 4 8 9 21 11 7 11 9 11
132 359 336 331 329 325 326 325 326 329 331 332 334 337 339 339 339 343 345 341 339 343 343 341 348 352 357 16 32 32 25 21 17 11 6 8 5 18 23 8 7 8 6
149 157 330 319 323 328 328 330 331 332 335 339 340 339 340 341 343 347 344 339 337 341 344 347 349 353 355 13 30 34 15 18 14 12 11 12 12 17 22 14 7 8 5
135 119 35 349 342 332 333 338 337 340 344 341 339 339 343 342 343 344 339 337 338 346 349 349 351 352 352 9 24 38 24 17 12 10 6 9 16 15 21 18 9 12 5
132 111 68 10 332 325 336 344 340 343 336 335 337 341 342 339 345 340 335 336 344 344 345 346 348 350 1 9 19 30 36 23 13 12 7 6 15 16 19 20 16 16 12
135 113 66 2 328 330 343 344 340 329 329 334 338 338 339 344 352 335 334 336 338 337 339 344 349 351 352 7 17 23 29 32 18 8 6 10 17 18 18 20 18 17 16
150 136 82 356 333 335 339 338 324 326 333 337 336 332 336 337 339 332 333 337 340 339 346 347 349 349 351 355 17 23 25 28 26 12 18 20 21 19 16 16 19 17 15
159 159 99 15 339 329 332 320 316 326 334 335 331 331 335 337 334 339 342 341 339 340 343 345 342 336 339 339 359 7 23 26 25 15 14 18 19 21 18 17 16 15 16
164 167 162 289 309 318 322 321 322 328 333 329 327 330 340 332 332 340 338 342 331 350 351 334 326 333 330 350 8 15 15 18 26 19 13 15 15 16 14 14 14 13 13
172 182 206 253 297 313 314 314 315 321 329 333 330 324 329 335 336 330 333 345 351 351 353 351 350 343 346 352 360 5 9 14 20 24 13 13 13 14 13 12 11 12 13
Height
1617 1615 1612 1609 1606 1601 1595 1589 1583 1577 1571 1564 1558 1551 1546 1541 1536 1531 1525 1519 1513 1508 1502 1497 1491 1486 1481 1476 1472 1467 1462 1457 1453 1446 1437 1432 1431 1429 1428 1428 1428 1428 1429
1616 1614 1611 1608 1604 1599 1594 1588 1582 1575 1569 1563 1557 1551 1545 1539 1533 1528 1522 1517 1511 1505 1499 1494 1488 1482 1477 1472 1468 1464 1459 1455 1452 1447 1440 1432 1426 1424 1423 1423 1422 1422 1423
1615 1613 1610 1606 1602 1597 1591 1586 1580 1574 1568 1561 1555 1548 1542 1535 1529 1523 1518 1513 1508 1502 1496 1490 1485 1479 1474 1469 1464 1461 1457 1452 1449 1448 1446 1439 1432 1424 1416 1417 1417 1417 1417
1613 1611 1608 1604 1600 1595 1590 1584 1578 1572 1566 1560 1553 1545 1538 1531 1525 1520 1514 1509 1504 1498 1493 1487 1481 1476 1470 1466 1461 1457 1454 1450 1446 1443 1442 1440 1436 1431 1420 1412 1412 1412 1412
1612 1609 1606 1602 1598 1594 1588 1583 1577 1571 1564 1558 1551 1544 1537 1531 1524 1517 1511 1505 1500 1494 1489 1483 1478 1472 1467 1462 1457 1453 1450 1446 1443 1440 1437 1435 1433 1430 1426 1415 1407 1406 1407
1610 1608 1605 1601 1597 1592 1586 1581 1574 1568 1562 1555 1549 1542 1535 1527 1520 1513 1506 1500 1495 1489 1485 1479 1474 1468 1463 1458 1453 1449 1445 1442 1439 1436 1433 1431 1429 1426 1423 1418 1410 1404 1401
1608 1606 1603 1599 1595 1590 1584 1578 1572 1566 1559 1553 1546 1539 1532 1525 1518 1510 1503 1496 1490 1484 1479 1475 1469 1464 1459 1454 1449 1444 1441 1437 1434 1431 1429 1427 1425 1423 1420 1417 1411 1405 1399
1607 1604 1601 1597 1593 1588 1582 1576 1569 1563 1557 1550 1543 1537 1530 1522 1515 1508 1501 1494 1487 1481 1476 1470 1465 1460 1454 1449 1444 1440 1436 1432 1429 1427 1424 1422 1420 1418 1416 1414 1410 1404 1398
1605 1603 1600 1596 1591 1586 1580 1574 1567 1561 1554 1547 1540 1533 1526 1519 1512 1505 1498 1491 1485 1478 1472 1466 1461 1455 1450 1445 1440 1435 1431 1428 1425 1422 1420 1417 1415 1413 1411 1409 1408 1406 1399
1603 1601 1598 1594 1589 1584 1579 1573 1566 1560 1553 1546 1538 1531 1524 1517 1510 1503 1496 1489 1483 1476 1469 1462 1456 1451 1445 1440 1435 1431 1427 1424 1421 1418 1415 1413 1411 1408 1406 1404 1402 1401 1398
1602 1599 1596 1592 1588 1583 1577 1570 1564 1557 1550 1543 1536 1529 1521 1515 1508 1501 1494 1488 1481 1474 1467 1460 1453 1446 1440 1435 1431 1426 1423 1420 1417 1414 1412 1409 1407 1404 1401 1399 1397 1395 1393
1600 1597 1594 1590 1585 1580 1574 1569 1562 1555 1548 1541 1534 1527 1520 1513 1506 1500 1493 1486 1479 1472 1465 1457 1450 1443 1436 1431 1426 1422 1420 1416 1413 1411 1409 1406 1403 1400 1397 1394 1391 1389 1388
1597 1595 1592 1587 1583 1578 1573 1567 1561 1554 1547 1539 1532 1525 1518 1512 1505 1498 1492 1485 1478 1470 1463 1455 1447 1439 1432 1426 1422 1419 1416 1414 1411 1409 1406 1403 1400 1396 1393 1390 1387 1384 1382
1595 1592 1589 1585 1581 1577 1572 1566 1559 1553 1545 1538 1531 1524 1518 1511 1505 1498 1491 1484 1477 1469 1461 1453 1445 1437 1429 1423 1419 1416 1414 1413 1411 1408 1405 1402 1398 1395 1391 1387 1383 1380 1378
1592 1590 1587 1584 1580 1576 1571 1565 1558 1551 1544 1537 1530 1524 1518 1511 1504 1497 1490 1484 1477 1470 1462 1454 1445 1436 1428 1422 1418 1416 1415 1413 1410 1408 1405 1402 1398 1394 1390 1386 1381 1377 1374
1590 1588 1586 1582 1579 1574 1569 1563 1557 1550 1544 1537 1530 1524 1517 1511 1504 1497 1491 1484 1477 1471 1464 1456 1447 1438 1430 1425 1422 1418 1417 1414 1412 1409 1406 1402 1398 1394 1389 1384 1380 1376 1373
1587 1586 1584 1581 1577 1573 1568 1562 1556 1550 1543 1537 1530 1524 1517 1511 1504 1498 1492 1485 1478 1472 1466 1459 1451 1443 1436 1431 1427 1423 1420 1417 1414 1411 1408 1404 1400 1395 1389 1384 1379 1375 1372
1586 1584 1582 1580 1576 1572 1568 1562 1556 1549 1543 1536 1530 1524 1517 1511 1505 1499 1493 1486 1480 1474 1468 1462 1455 1449 1442 1437 1433 1429 1425 1421 1418 1414 1411 1407 1402 1398 1391 1385 1380 1375 1371
1584 1582 1580 1578 1575 1571 1566 1561 1555 1549 1542 1536 1530 1524 1518 1512 1506 1500 1494 1488 1482 1477 1471 1465 1459 1453 1447 1443 1438 1433 1429 1425 1421 1417 1414 1410 1405 1401 1394 1387 1381 1376 1372
1581 1580 1578 1576 1574 1570 1565 1560 1554 1548 1542 1536 1531 1525 1519 1513 1507 1502 1496 1491 1485 1480 1474 1469 1463 1457 1452 1448 1443 1437 1433 1428 1424 1420 1416 1412 1408 1403 1397 1390 1384 1379 1374
1579 1578 1576 1574 1572 1568 1564 1559 1554 1548 1543 1538 1532 1526 1520 1514 1509 1503 1498 1493 1487 1482 1477 1472 1467 1461 1457 1452 1448 1442 1436 1432 1427 1423 1418 1414 1410 1405 1399 1394 1388 1384 1378
1576 1576 1574 1573 1570 1567 1564 1559 1554 1549 1544 1539 1533 1527 1521 1515 1510 1504 1499 1494 1489 1484 1479 1474 1469 1465 1460 1456 1452 1447 1442 1436 1431 1427 1423 1418 1413 1407 1402 1397 1392 1387 1381
1574 1574 1573 1571 1569 1566 1562 1558 1554 1549 1545 1540 1534 1528 1523 1517 1511 1505 1499 1494 1490 1485 1480 1476 1472 1467 1463 1459 1455 1450 1445 1440 1435 1430 1427 1421 1415 1409 1404 1400 1395 1389 1384
1571 1571 1571 1569 1567 1565 1561 1557 1553 1549 1545 1540 1534 1529 1523 1518 1512 1506 1500 1495 1490 1486 1482 1478 1474 1470 1466 1461 1457 1453 1448 1443 1439 1434 1429 1424 1419 1413 1408 1403 1398 1393 1389
1569 1569 1568 1567 1565 1563 1560 1557 1553 1549 1545 1540 1535 1529 1524 1519 1514 1508 1503 1497 1492 1489 1484 1479 1475 1471 1467 1464 1460 1456 1452 1447 1443 1438 1432 1427 1421 1416 1412 1407 1403 1399 1395
1566 1566 1566 1565 1563 1561 1559 1556 1552 1548 1544 1539 1535 1530 1525 1520 1515 1510 1505 1500 1494 1489 1484 1480 1476 1472 1469 1465 1461 1457 1454 1450 1446 1441 1435 1431 1426 1422 1418 1413 1409 1405 1401